Regional Weather Roundup
Issued by NWS

Home | Current Version | Previous Version | Graphics & Text | Print | Product List | Glossary On
Versions: 1 2 3 4 5 6 7 8 9 10 11 12 13 14 15 16 17 18 19 20 21 22 23 24 25 26 27 28 29 30 31 32 33 34 35 36 37 38 39 40 41 42 43 44 45 46 47 48 49 50
017
ASUS45 KABQ 171701
RWRNM
NEW MEXICO REGIONAL WEATHER ROUNDUP
NATIONAL WEATHER SERVICE ALBUQUERQUE NM
1100 AM MDT TUE OCT 17 2017

NOTE: "FAIR" MEANS FEW OR NO CLOUDS BELOW 12,000 FEET AGL WITH NO
       SIGNIFICANT WEATHER OR OBSTRUCTIONS TO VISION.

      THIS PRODUCT IS RELEASED AS TWO VERSIONS.  ONE VERSION NEAR
      THE TOP OF THE HOUR CONTAINING PRELIMINARY DATA FROM ALBUQUERQUE
      AND OTHER STATIONS.  A FINAL VERSION WITH ADDITIONAL DATA IS
      ISSUED ABOUT 10 MINUTES AFTER THE HOUR.

NMZ501-503-504-510>518-171800-
NORTHWEST PLATEAU/NORTHCENTRAL MOUNTAINS

CITY           SKY/WX    TMP DP  RH WIND       PRES   REMARKS
FARMINGTON     FAIR      53  23  31 E7        30.37F
LOS ALAMOS     FAIR      57  25  30 E3        30.43F
SANTA FE       NOT AVBL
TAOS           FAIR      58  19  22 CALM      30.45F
ANGEL FIRE     FAIR      57  13  17 W13       30.46F

$$
NMZ402-403-502-505>509-171800-
WESTCENTRAL MOUNTAINS/SOUTHWEST MOUNTAINS

CITY           SKY/WX    TMP DP  RH WIND       PRES   REMARKS
GALLUP         FAIR      58  22  24 CALM      30.42F
GRANTS         FAIR      56  24  28 N6        30.44S
SILVER CITY    FAIR      71  43  35 E7        30.36F

$$
NMZ407-409-411-412-171800-
SOUTHERN DESERTS

CITY           SKY/WX    TMP DP  RH WIND       PRES   REMARKS
DEMING         FAIR      71  41  33 E6        30.30F
LAS CRUCES     FAIR      70  38  31 CALM      30.33S
HOLLOMAN AFB   FAIR      75  39  26 CALM        N/A
ALAMOGORDO     FAIR      66  37  34 CALM      30.33F
T OR C         FAIR      69  41  36 CALM      30.33F

$$
NMZ519>523-171800-
CENTRAL VALLEYS/CENTRAL HIGHLANDS

CITY           SKY/WX    TMP DP  RH WIND       PRES   REMARKS
ALBUQUERQUE    FAIR      61  32  33 VRB3      30.38S
DOUBLE EAGLE   MOSUNNY   61  30  31 VRB5      30.39F
MORIARTY ARPT  FAIR      63  35  36 CALM      30.40S
CLINES CORNERS NOT AVBL
BELEN          FAIR      60  29  31 CALM      30.37F
SOCORRO        FAIR      63  34  33 NE6       30.36S

$$
NMZ524>526-539-540-171800-
SOUTHCENTRAL MOUNTAINS

CITY           SKY/WX    TMP DP  RH WIND       PRES   REMARKS
RUIDOSO        FAIR      68  36  30 NW10      30.42S

$$
NMZ527>531-171800-
NORTHEAST HIGHLANDS/NORTHEAST PLAINS

CITY           SKY/WX    TMP DP  RH WIND       PRES   REMARKS
LAS VEGAS      FAIR      67  17  14 CALM      30.35F
RATON          FAIR      70  16  12 E5        30.29F
CLAYTON        FAIR      72  24  16 N10       30.22F

$$
NMZ532>537-171800-
EASTCENTRAL PLAINS

CITY           SKY/WX    TMP DP  RH WIND       PRES   REMARKS
SANTA ROSA     FAIR      72  37  27 W7        30.25F
TUCUMCARI      FAIR      71  34  25 W10       30.19F
CANNON AFB     FAIR      67  42  39 SW14      30.26F
CLOVIS AIRPORT FAIR      69  43  38 SW15      30.26F

$$
NMZ028-029-538-171800-
SOUTHEAST PLAINS

CITY           SKY/WX    TMP DP  RH WIND       PRES   REMARKS
ROSWELL        FAIR      61  42  49 CALM      30.28S
ARTESIA        FAIR      64  39  39 SE6       30.27F
CARLSBAD       FAIR      65  43  44 VRB6      30.26F
HOBBS          SUNNY     70  37  30 SW5       30.28F


$$




USA.gov is the U.S. government's official web portal to all federal, state and local government web resources and services.